Simultaneous Nadir Overpasses (SNOs) Predictions

Prediction of SNOs between AURA and NPP Satellite Orbit:

Table of predicted SNOs for the next 14.0 days since TLE Epoch: 6/8/2012
Index Date (AURA) Time (AURA) AURA Lat,Lon Date (NPP) Time (NPP) NPP Lat,Lon Distance(km) Time Diff (sec)
1 06/09/2012 04:30:54 -79.75,-169.24 06/09/2012 04:30:36 -79.75,-169.27 0.60 18
2 06/09/2012 05:20:14 79.96, 0.07 06/09/2012 05:21:13 79.97, 0.14 1.51 59
3 06/11/2012 19:57:56 79.60, 137.90 06/11/2012 19:56:47 79.59, 137.80 2.32 69
4 06/11/2012 20:47:16 -79.86, -52.52 06/11/2012 20:47:24 -79.86, -52.43 1.68 8
5 06/14/2012 12:14:18 79.70,-105.49 06/14/2012 12:13:35 79.70,-105.50 0.22 43
6 06/14/2012 13:03:40 -79.89, 63.58 06/14/2012 13:04:15 -79.88, 63.46 2.61 35
7 06/17/2012 04:30:40 79.79, 11.06 06/17/2012 04:30:23 79.79, 11.14 1.82 17
8 06/17/2012 05:20:02 -79.97,-179.84 06/17/2012 05:21:03 -79.97,-179.86 0.61 61
9 06/19/2012 19:57:41 -79.65, -41.67 06/19/2012 19:56:33 -79.66, -41.58 1.85 68




NCC Satellite Simultaneous Nadir Overpasses (SNOs) Prediction Service
